Weather History for KOPM - October, 2012

Change the Weather History Date:

Sunday, October 14, 2012

  Actual Average Record
Temperature  
Mean Temperature 82 °F -  
Max Temperature 82 °F - - ()
Min Temperature 82 °F - - ()
Cooling Degree Days 17    
Growing Degree Days 32 (Base 50)    
Moisture  
Dew Point 71 °F    
Average Humidity 68    
Maximum Humidity 74    
Minimum Humidity 62    
Precipitation  
Precipitation 0.00 in - - ()
Sea Level Pressure  
Sea Level Pressure 29.99 in    
Wind  
Wind Speed 21 mph (SE)    
Max Wind Speed 30 mph    
Max Gust Speed 32 mph    
Visibility 10 miles    
Events      
T = Trace of Precipitation, MM = Missing Value Source: NWS Daily Summary

Daily Weather History Graph

Daily Weather History Graph

Search for Another Location

Airport or City:

Trip Planner

Search our weather history database for the weather conditions in past years. The results will help you decide how hot, cold, wet, or windy it might be!

Date:

Astronomy

Oct. 14, 2012 Rise Set
Actual Time 7:27 AM CDT 6:59 PM CDT
Civil Twilight 7:03 AM CDT 7:23 PM CDT
Nautical Twilight 6:36 AM CDT 7:50 PM CDT
Astronomical Twilight 6:09 AM CDT 8:17 PM CDT
Moon 6:29 AM CDT (10/14) 6:21 PM CDT (10/14)
Length of Visible Light 12h 19m
Length of Day
11h 32m
Waning Crescent, 1% of the Moon is Illuminated
Oct 14
Waning Crescent
Oct 15
New
Oct 21
First Quarter
Oct 29
Full
Nov 6
Last Quarter

Hourly Weather History & Observations

Time (CDT) Temp. Heat Index Dew Point Humidity Pressure Visibility Wind Dir Wind Speed Gust Speed Precip Events Conditions
12:35 AM 82.4 °F 88.2 °F 73.4 °F 74% 29.98 in 9.0 mi SE 26.5 mph - N/A   Partly Cloudy
12:55 AM 82.4 °F 88.2 °F 73.4 °F 74% 29.97 in 8.0 mi SE 24.2 mph - N/A   Scattered Clouds
1:15 AM 82.4 °F 88.2 °F 73.4 °F 74% 29.97 in 10.0 mi SE 25.3 mph - N/A   Scattered Clouds
1:35 AM 82.4 °F 88.2 °F 73.4 °F 74% 29.97 in 9.0 mi SE 26.5 mph - N/A   Mostly Cloudy
1:55 AM 82.4 °F 88.2 °F 73.4 °F 74% 29.97 in 9.0 mi SSE 25.3 mph - N/A   Scattered Clouds
2:15 AM 82.4 °F 88.2 °F 73.4 °F 74% 29.96 in 9.0 mi SE 26.5 mph - N/A   Clear
2:35 AM 82.4 °F 87.2 °F 71.6 °F 70% 29.95 in 10.0 mi SSE 27.6 mph - N/A   Clear
2:55 AM 82.4 °F 88.2 °F 73.4 °F 74% 29.95 in 9.0 mi SSE 26.5 mph - N/A   Clear
3:15 AM 82.4 °F 87.2 °F 71.6 °F 70% 29.93 in 9.0 mi SSE 28.8 mph - N/A   Clear
3:35 AM 82.4 °F 88.2 °F 73.4 °F 74% 29.93 in 8.0 mi SSE 29.9 mph - N/A   Scattered Clouds
3:55 AM 82.4 °F 87.2 °F 71.6 °F 70% 29.93 in 10.0 mi SSE 26.5 mph 32.2 mph N/A   Clear
4:15 AM 82.4 °F 87.2 °F 71.6 °F 70% 29.93 in 9.0 mi SSE 26.5 mph - N/A   Partly Cloudy
4:35 AM 82.4 °F 88.2 °F 73.4 °F 74% 29.93 in 9.0 mi SSE 23.0 mph - N/A   Scattered Clouds
4:55 AM 82.4 °F 87.2 °F 71.6 °F 70% 29.94 in 9.0 mi SSE 26.5 mph - N/A   Scattered Clouds
5:15 AM 82.4 °F 87.2 °F 71.6 °F 70% 29.93 in 9.0 mi SSE 26.5 mph 32.2 mph N/A   Scattered Clouds
5:35 AM 82.4 °F 87.2 °F 71.6 °F 70% 29.94 in 9.0 mi SSE 24.2 mph - N/A   Partly Cloudy
6:15 AM 82.4 °F 87.2 °F 71.6 °F 70% 29.95 in 10.0 mi SSE 23.0 mph - N/A   Partly Cloudy
6:35 AM 82.4 °F 87.2 °F 71.6 °F 70% 29.95 in 10.0 mi SSE 24.2 mph - N/A   Scattered Clouds
6:55 AM 82.4 °F 86.3 °F 69.8 °F 66% 29.95 in 10.0 mi SSE 25.3 mph - N/A   Scattered Clouds
7:15 AM 82.4 °F 86.3 °F 69.8 °F 66% 29.95 in - SSE 25.3 mph - N/A   Unknown
7:35 AM 82.4 °F 86.3 °F 69.8 °F 66% 29.97 in 9.0 mi SSE 24.2 mph - N/A   Unknown
7:55 AM 82.4 °F 86.3 °F 69.8 °F 66% 29.98 in 9.0 mi SSE 20.7 mph - N/A   Scattered Clouds
8:15 AM 82.4 °F 86.3 °F 69.8 °F 66% 29.98 in 9.0 mi SSE 20.7 mph - N/A   Scattered Clouds
8:35 AM 82.4 °F 86.3 °F 69.8 °F 66% 29.99 in 9.0 mi SSE 21.9 mph - N/A   Partly Cloudy
8:55 AM 82.4 °F 86.3 °F 69.8 °F 66% 30.00 in 9.0 mi SSE 19.6 mph - N/A   Partly Cloudy
9:15 AM 82.4 °F 86.3 °F 69.8 °F 66% 30.01 in 10.0 mi SSE 18.4 mph - N/A   Clear
9:35 AM - - - N/A% 30.02 in - North - - N/A   Unknown
9:55 AM 82.4 °F 86.3 °F 69.8 °F 66% 30.03 in 9.0 mi SSE 18.4 mph - N/A   Unknown
10:15 AM 82.4 °F 86.3 °F 69.8 °F 66% 30.03 in 10.0 mi SSE 18.4 mph - N/A   Clear
10:35 AM 82.4 °F 85.4 °F 68.0 °F 62% 30.03 in 10.0 mi SSE 20.7 mph - N/A   Clear
10:55 AM 82.4 °F 86.3 °F 69.8 °F 66% 30.03 in 10.0 mi SSE 17.3 mph - N/A   Clear
11:15 AM 82.4 °F 86.3 °F 69.8 °F 66% 30.03 in 10.0 mi SSE 15.0 mph - N/A   Clear
11:35 AM 82.4 °F 86.3 °F 69.8 °F 66% 30.03 in 9.0 mi SSE 16.1 mph - N/A   Clear
11:55 AM 82.4 °F 86.3 °F 69.8 °F 66% 30.03 in 10.0 mi SSE 13.8 mph - N/A   Clear
12:15 PM 82.4 °F 86.3 °F 69.8 °F 66% 30.04 in 10.0 mi SE 12.7 mph - N/A   Clear
12:35 PM 82.4 °F 86.3 °F 69.8 °F 66% 30.04 in 10.0 mi SE 13.8 mph - N/A   Clear
12:55 PM 82.4 °F 86.3 °F 69.8 °F 66% 30.03 in 10.0 mi SE 13.8 mph - N/A   Clear
1:15 PM 82.4 °F 87.2 °F 71.6 °F 70% 30.02 in 10.0 mi SE 13.8 mph - N/A   Clear
1:35 PM 82.4 °F 86.3 °F 69.8 °F 66% 30.01 in 10.0 mi SE 13.8 mph - N/A   Clear
1:55 PM 82.4 °F 86.3 °F 69.8 °F 66% 30.02 in 10.0 mi SE 12.7 mph - N/A   Clear
2:15 PM 82.4 °F 86.3 °F 69.8 °F 66% 30.01 in 10.0 mi SE 12.7 mph - N/A   Clear
2:35 PM 82.4 °F 86.3 °F 69.8 °F 66% 30.00 in 10.0 mi SE 13.8 mph - N/A   Clear
2:55 PM 82.4 °F 86.3 °F 69.8 °F 66% 30.00 in 10.0 mi SE 13.8 mph - N/A   Clear
3:15 PM 82.4 °F 86.3 °F 69.8 °F 66% 29.99 in 10.0 mi SE 15.0 mph - N/A   Clear
3:35 PM 82.4 °F 86.3 °F 69.8 °F 66% 29.99 in 10.0 mi SE 13.8 mph - N/A   Clear
3:55 PM 82.4 °F 86.3 °F 69.8 °F 66% 29.98 in 10.0 mi SE 13.8 mph - N/A   Clear
4:15 PM 82.4 °F 86.3 °F 69.8 °F 66% 29.97 in 10.0 mi SE 15.0 mph - N/A   Clear
4:35 PM 82.4 °F 86.3 °F 69.8 °F 66% 29.97 in 10.0 mi SE 12.7 mph - N/A   Clear
4:55 PM 82.4 °F 86.3 °F 69.8 °F 66% 29.97 in 10.0 mi SE 15.0 mph - N/A   Clear
5:15 PM 82.4 °F 86.3 °F 69.8 °F 66% 29.97 in 10.0 mi SE 13.8 mph - N/A   Clear
5:35 PM 82.4 °F 87.2 °F 71.6 °F 70% 29.97 in 10.0 mi SE 10.4 mph - N/A   Clear
5:55 PM 82.4 °F 86.3 °F 69.8 °F 66% 29.98 in 10.0 mi SE 10.4 mph - N/A   Clear
6:15 PM 82.4 °F 86.3 °F 69.8 °F 66% 29.98 in 10.0 mi SE 10.4 mph - N/A   Clear
6:35 PM 82.4 °F 86.3 °F 69.8 °F 66% 29.99 in 10.0 mi ESE 9.2 mph - N/A   Clear
6:55 PM 82.4 °F 86.3 °F 69.8 °F 66% 29.99 in 10.0 mi ESE 6.9 mph - N/A   Clear
7:15 PM 82.4 °F 86.3 °F 69.8 °F 66% 29.99 in 10.0 mi ESE 10.4 mph - N/A   Clear
7:35 PM 82.4 °F 86.3 °F 69.8 °F 66% 29.99 in 10.0 mi SE 10.4 mph - N/A   Clear
7:55 PM 82.4 °F 86.3 °F 69.8 °F 66% 29.99 in 10.0 mi ESE 11.5 mph - N/A   Clear
8:15 PM 82.4 °F 87.2 °F 71.6 °F 70% 30.00 in 10.0 mi ESE 11.5 mph - N/A   Clear
8:35 PM 82.4 °F 87.2 °F 71.6 °F 70% 30.00 in 10.0 mi ESE 10.4 mph - N/A   Clear
8:55 PM 82.4 °F 86.3 °F 69.8 °F 66% 30.01 in 10.0 mi ESE 10.4 mph - N/A   Clear
9:15 PM 82.4 °F 86.3 °F 69.8 °F 66% 30.01 in 10.0 mi ESE 11.5 mph - N/A   Clear
9:35 PM 82.4 °F 86.3 °F 69.8 °F 66% 30.01 in 10.0 mi SE 10.4 mph - N/A   Clear
9:55 PM 82.4 °F 86.3 °F 69.8 °F 66% 30.02 in 10.0 mi ESE 11.5 mph - N/A   Clear
10:15 PM 82.4 °F 86.3 °F 69.8 °F 66% 30.02 in 10.0 mi SE 9.2 mph - N/A   Clear
10:35 PM 82.4 °F 86.3 °F 69.8 °F 66% 30.03 in 10.0 mi SE 8.1 mph - N/A   Clear
10:55 PM 82.4 °F 86.3 °F 69.8 °F 66% 30.03 in 10.0 mi SE 6.9 mph - N/A   Clear
11:15 PM 82.4 °F 86.3 °F 69.8 °F 66% 30.03 in 10.0 mi SE 8.1 mph - N/A   Clear
11:35 PM 82.4 °F 86.3 °F 69.8 °F 66% 30.03 in 10.0 mi SE 6.9 mph - N/A   Clear